Mankato, MN

4:50 AM CST on November 13, 2019 (GMT -0600)
Mankato Regional

Weather History for KMKT - September, 2019

Change the Weather History Date:

Monday, September 2, 2019

  Actual Average Record
Temperature  
Mean Temperature 68 °F -  
Max Temperature 77 °F 75 °F 89 °F (2012)
Min Temperature 62 °F 56 °F 46 °F (1998)
Cooling Degree Days 4    
Growing Degree Days 18 (Base 50)    
Moisture  
Dew Point 65 °F    
Average Humidity 86    
Maximum Humidity 100    
Minimum Humidity 69    
Precipitation  
Precipitation 0.00 in - - ()
Sea Level Pressure  
Sea Level Pressure 30.01 in    
Wind  
Wind Speed 5 mph ()    
Max Wind Speed 15 mph    
Max Gust Speed 24 mph    
Visibility 8.6 miles    
Events Rain , Thunderstorm    
Averages and records for this station are not official NWS values.
T = Trace of Precipitation, MM = Missing Value Source: Averaged Metar Reports

Daily Weather History Graph

Daily Weather History Graph

Search for Another Location

Airport or City:

Astronomy

Sep. 02, 2019 Rise Set
Actual Time 6:39 AM CDT 7:50 PM CDT
Civil Twilight 6:09 AM CDT 8:20 PM CDT
Nautical Twilight 5:33 AM CDT 8:55 PM CDT
Astronomical Twilight 4:56 AM CDT 9:33 PM CDT
Moon 10:30 AM CDT (9/2) 10:03 PM CDT (9/2)
Length of Visible Light 14h 10m
Length of Day
13h 10m
Waxing Crescent, 15% of the Moon is Illuminated
Sep 2
Waxing Crescent
Sep 5
First Quarter
Sep 13
Full
Sep 21
Last Quarter
Sep 28
New

Hourly Weather History & Observations

Time (CDT) Temp. Dew Point Humidity Pressure Visibility Wind Dir Wind Speed Gust Speed Precip Events Conditions
12:56 AM 64.0 °F 63.0 °F 96% 30.07 in 10.0 mi SSE 4.6 mph - N/A   Mostly Cloudy
1:56 AM 63.0 °F 63.0 °F 100% 30.08 in 9.0 mi Calm Calm - N/A   Mostly Cloudy
2:20 AM 62.6 °F 62.6 °F 100% 30.07 in 2.5 mi NE 3.5 mph - N/A   Scattered Clouds
2:29 AM 62.6 °F 62.6 °F 100% 30.08 in 5.0 mi Calm Calm - N/A   Partly Cloudy
2:56 AM 63.0 °F 63.0 °F 100% 30.07 in 5.0 mi Calm Calm - 0.00 in Rain Light Rain
3:17 AM 62.6 °F 62.6 °F 100% 30.07 in 1.5 mi Calm Calm - 0.00 in   Scattered Clouds
3:20 AM 62.6 °F 62.6 °F 100% 30.08 in 1.0 mi NW 4.6 mph - 0.00 in   Mostly Cloudy
3:39 AM 62.6 °F 62.6 °F 100% 30.08 in 4.0 mi NNW 5.8 mph - 0.00 in   Overcast
3:56 AM 62.1 °F 62.1 °F 100% 30.08 in 4.0 mi NNE 6.9 mph - 0.00 in   Mostly Cloudy
4:56 AM 64.0 °F 64.0 °F 100% 30.08 in 10.0 mi NE 3.5 mph - N/A   Clear
5:44 AM 62.6 °F 62.6 °F 100% 30.10 in 6.0 mi NNE 4.6 mph - N/A   Mostly Cloudy
5:56 AM 63.0 °F 63.0 °F 100% 30.10 in 7.0 mi East 3.5 mph - N/A   Overcast
6:56 AM 64.0 °F 64.0 °F 100% 30.11 in 8.0 mi East 4.6 mph - N/A   Mostly Cloudy
7:18 AM 62.6 °F 62.6 °F 100% 30.11 in 5.0 mi North 5.8 mph - N/A   Partly Cloudy
7:56 AM 64.0 °F 64.0 °F 100% 30.11 in 7.0 mi NE 3.5 mph - N/A   Partly Cloudy
8:56 AM 66.0 °F 64.0 °F 93% 30.12 in 10.0 mi ENE 4.6 mph - 0.00 in   Clear
9:56 AM 68.0 °F 63.0 °F 84% 30.12 in 10.0 mi East 8.1 mph - N/A   Clear
10:56 AM 69.1 °F 62.1 °F 78% 30.10 in 10.0 mi East 8.1 mph - N/A   Clear
11:56 AM 72.0 °F 64.0 °F 76% 30.09 in 10.0 mi ESE 10.4 mph - N/A   Clear
12:56 PM 75.0 °F 64.9 °F 71% 30.08 in 10.0 mi East 9.2 mph - N/A   Mostly Cloudy
1:19 PM 75.2 °F 64.4 °F 69% 30.07 in 10.0 mi ESE 9.2 mph - N/A   Mostly Cloudy
1:46 PM 75.2 °F 64.4 °F 69% 30.07 in 10.0 mi East 6.9 mph - N/A   Mostly Cloudy
1:56 PM 75.9 °F 64.9 °F 69% 30.05 in 10.0 mi ESE 8.1 mph - N/A   Mostly Cloudy
2:17 PM 75.2 °F 64.4 °F 69% 30.04 in 10.0 mi East 9.2 mph - N/A   Mostly Cloudy
2:31 PM 75.2 °F 64.4 °F 69% 30.03 in 10.0 mi ESE 9.2 mph - N/A   Mostly Cloudy
2:48 PM 75.2 °F 64.4 °F 69% 30.02 in 10.0 mi ESE 10.4 mph - N/A   Overcast
2:56 PM 75.9 °F 66.0 °F 71% 30.01 in 10.0 mi East 10.4 mph - N/A   Overcast
3:11 PM 75.2 °F 64.4 °F 69% 30.01 in 10.0 mi ESE 10.4 mph - N/A   Overcast
3:38 PM 75.2 °F 66.2 °F 73% 30.00 in 10.0 mi ESE 10.4 mph - N/A   Overcast
3:47 PM 75.2 °F 66.2 °F 73% 30.00 in 10.0 mi ESE 10.4 mph - N/A   Overcast
3:56 PM 75.9 °F 66.0 °F 71% 30.00 in 10.0 mi ESE 9.2 mph - N/A   Overcast
4:09 PM 75.2 °F 66.2 °F 73% 30.00 in 10.0 mi ESE 8.1 mph - N/A   Overcast
4:37 PM 75.2 °F 66.2 °F 73% 29.99 in 10.0 mi ESE 6.9 mph - N/A   Overcast
4:56 PM 75.9 °F 68.0 °F 76% 29.98 in 10.0 mi SE 8.1 mph - N/A   Overcast
5:06 PM 75.2 °F 68.0 °F 78% 29.97 in 10.0 mi ESE 8.1 mph - N/A   Overcast
5:36 PM 75.2 °F 68.0 °F 78% 29.96 in 10.0 mi SE 11.5 mph - N/A   Overcast
5:56 PM 75.9 °F 69.1 °F 79% 29.94 in 10.0 mi SE 10.4 mph - N/A   Overcast
6:56 PM 75.0 °F 69.1 °F 82% 29.90 in 10.0 mi SE 12.7 mph - N/A   Overcast
7:53 PM 73.4 °F 69.8 °F 88% 29.91 in 10.0 mi SE 6.9 mph - N/A   Overcast
7:56 PM 73.9 °F 71.1 °F 91% 29.91 in 10.0 mi SE 8.1 mph - N/A   Overcast
8:56 PM 73.0 °F 71.1 °F 93% 29.84 in 10.0 mi SSE 15.0 mph - N/A   Scattered Clouds
9:56 PM 73.9 °F 71.1 °F 91% 29.81 in 10.0 mi SSE 15.0 mph 19.6 mph N/A   Overcast
10:52 PM 73.4 °F 69.8 °F 88% 29.84 in 10.0 mi SSW 9.2 mph 20.7 mph N/A Thunderstorm Overcast
10:56 PM 73.9 °F 70.0 °F 87% 29.84 in 10.0 mi SSW 6.9 mph 16.1 mph N/A Thunderstorm Overcast
11:16 PM 66.2 °F 64.4 °F 94% 29.88 in 10.0 mi NE 12.7 mph 24.2 mph 0.00 in Rain , Thunderstorm Light Rain
11:27 PM 66.2 °F 64.4 °F 94% 29.86 in 10.0 mi NE 9.2 mph - 0.00 in   Overcast
11:56 PM 68.0 °F 66.0 °F 93% 29.84 in 10.0 mi NE 3.5 mph - 0.00 in   Overcast